QPF
0.27 0.15 0.11 0.06 0.03 0.00 0.00 0.00 0.00 0.00 0.00 0.00 0.00 0.00 0.00 0.00 0.00 0.00 0.00 0.00 0.00 0.00
0.14 0.14 0.05 0.05 0.04 0.01 0.00 0.00 0.00 0.00 0.00 0.00 0.00 0.00 0.00 0.00 0.00 0.00 0.00 0.00 0.00 0.00
0.25 0.25 0.24 0.17 0.15 0.07 0.02 0.00 0.00 0.00 0.00 0.00 0.00 0.00 0.00 0.00 0.00 0.00 0.00 0.00 0.00 0.00
0.18 0.33 0.34 0.43 0.31 0.23 0.14 0.06 0.00 0.00 0.00 0.00 0.00 0.00 0.00 0.00 0.00 0.00 0.00 0.00 0.00 0.00
0.19 0.30 0.40 0.44 0.39 0.34 0.27 0.17 0.05 0.01 0.01 0.00 0.00 0.00 0.00 0.00 0.00 0.00 0.00 0.00 0.00 0.00
0.02 0.23 0.35 0.40 0.44 0.45 0.48 0.23 0.13 0.08 0.03 0.01 0.00 0.00 0.00 0.00 0.00 0.00 0.00 0.00 0.00 0.00
0.04 0.10 0.19 0.28 0.27 0.32 0.42 0.47 0.25 0.12 0.03 0.02 0.02 0.02 0.03 0.01 0.00 0.00 0.00 0.00 0.00 0.00
0.06 0.11 0.16 0.12 0.15 0.21 0.29 0.36 0.39 0.34 0.21 0.09 0.09 0.03 0.04 0.04 0.02 0.00 0.00 0.00 0.00 0.00
0.02 0.03 0.16 0.22 0.10 0.08 0.12 0.19 0.29 0.44 0.53 0.30 0.20 0.15 0.05 0.01 0.00 0.00 0.00 0.00 0.00 0.00
0.00 0.00 0.02 0.26 0.43 0.24 0.10 0.10 0.14 0.23 0.57 1.02 0.80 0.30 0.13 0.04 0.04 0.00 0.00 0.00 0.00 0.00
0.00 0.00 0.00 0.01 0.11 0.31 0.30 0.17 0.16 0.13 0.19 0.39 0.66 0.50 0.22 0.10 0.10 0.04 0.00 0.00 0.00 0.00
0.00 0.00 0.00 0.00 0.00 0.03 0.08 0.16 0.19 0.18 0.15 0.20 0.25 0.36 0.42 0.31 0.18 0.09 0.02 0.00 0.00 0.00
0.00 0.00 0.00 0.00 0.00 0.00 0.01 0.04 0.06 0.07 0.10 0.16 0.23 0.32 0.43 0.48 0.43 0.19 0.10 0.03 0.01 0.00
0.00 0.00 0.00 0.00 0.00 0.00 0.00 0.01 0.04 0.05 0.06 0.09 0.11 0.18 0.38 0.57 0.58 0.40 0.21 0.11 0.06 0.03
MSLP
1008.43 1008.64 1008.88 1008.66 1008.22 1008.61 1009.00 1009.10 1009.40 1010.23 1011.09 1011.75 1012.37 1013.11 1013.69 1014.19 1014.53 1014.95 1015.45 1015.82 1016.26 1016.63
1008.61 1007.75 1007.59 1007.92 1007.83 1007.63 1007.79 1008.44 1008.81 1009.19 1009.74 1010.52 1011.27 1012.00 1012.65 1013.15 1013.56 1013.90 1014.15 1014.56 1015.18 1015.67
1008.65 1007.57 1006.95 1006.93 1007.26 1007.39 1007.26 1007.62 1008.35 1008.88 1009.21 1009.85 1010.34 1010.90 1011.73 1012.26 1012.64 1013.15 1013.31 1013.60 1014.21 1014.57
1008.50 1007.65 1007.51 1007.45 1007.35 1007.13 1006.72 1006.65 1007.18 1007.64 1008.13 1008.75 1009.55 1009.93 1010.50 1010.97 1011.59 1012.16 1012.40 1012.84 1013.12 1013.35
1009.33 1008.01 1007.65 1007.53 1007.29 1008.36 1006.31 1006.00 1006.25 1006.63 1006.91 1007.36 1008.03 1008.85 1009.32 1009.84 1010.14 1010.55 1011.07 1011.49 1012.02 1012.06
1010.12 1008.81 1007.39 1006.53 1006.25 1005.02 1005.10 1006.06 1005.13 1005.94 1005.81 1005.88 1006.50 1007.35 1007.81 1008.18 1008.66 1009.13 1009.52 1010.02 1010.65 1010.65
1010.64 1009.68 1007.82 1007.09 1006.01 1004.88 1005.31 1003.74 1003.75 1004.84 1004.93 1004.74 1004.77 1005.64 1006.25 1006.95 1007.60 1008.15 1008.70 1008.79 1009.02 1009.53
1011.70 1010.49 1008.45 1007.76 1006.84 1005.99 1005.93 1004.14 1004.30 1004.00 1004.12 1003.67 1003.50 1003.71 1005.08 1005.94 1006.56 1006.95 1007.27 1007.63 1007.94 1008.24
1012.18 1010.86 1010.11 1008.26 1007.26 1007.12 1005.67 1005.47 1004.56 1002.73 1002.94 1003.09 1003.12 1003.48 1003.27 1003.80 1004.44 1005.09 1005.92 1006.22 1006.55 1006.82
1012.01 1011.39 1010.73 1009.43 1008.18 1008.15 1007.55 1006.49 1005.77 1004.21 1003.39 1002.59 1000.93 1001.68 1002.95 1003.22 1002.52 1003.44 1004.14 1004.57 1005.14 1005.68
1012.59 1011.85 1010.64 1009.94 1009.19 1009.53 1008.01 1005.98 1005.92 1004.70 1004.23 1003.00 1001.48 999.59 1001.28 1002.54 1002.31 1002.60 1002.97 1003.41 1003.67 1004.30
1012.93 1012.23 1011.07 1010.13 1008.86 1007.59 1007.04 1006.08 1005.28 1005.19 1004.64 1004.04 1002.66 1002.38 1002.06 1002.18 1002.33 1001.70 1001.77 1002.29 1002.49 1003.07
1013.32 1012.53 1011.64 1010.84 1010.13 1008.80 1008.26 1006.92 1006.48 1004.95 1004.73 1004.32 1003.91 1002.90 1003.62 1002.42 1001.22 999.28 1001.25 1001.36 1001.10 1001.72
1013.54 1012.49 1011.86 1011.22 1010.58 1009.65 1009.04 1007.71 1007.40 1006.51 1005.93 1005.80 1004.66 1004.21 1004.56 1004.45 1001.17 1000.92 1001.14 1000.67 1000.84 1001.20
Thickness
5685 5687 5691 5702 5713 5715 5722 5731 5736 5732 5728 5727 5727 5723 5721 5717 5716 5714 5712 5710 5711 5710
5670 5684 5688 5696 5705 5715 5721 5723 5729 5731 5730 5727 5725 5722 5720 5717 5716 5714 5715 5714 5711 5709
5656 5671 5683 5690 5691 5699 5709 5713 5715 5717 5721 5722 5720 5721 5717 5715 5715 5711 5713 5715 5711 5711
5638 5654 5660 5667 5676 5683 5696 5703 5709 5713 5716 5717 5715 5716 5717 5716 5713 5710 5712 5710 5711 5712
5610 5634 5643 5648 5661 5652 5681 5694 5702 5708 5712 5714 5715 5713 5713 5713 5715 5714 5713 5713 5710 5714
5584 5605 5625 5642 5650 5650 5660 5677 5692 5695 5705 5713 5712 5712 5714 5716 5717 5715 5716 5715 5711 5716
5562 5578 5602 5613 5640 5654 5657 5647 5685 5687 5698 5709 5716 5713 5714 5712 5710 5711 5709 5715 5716 5715
5533 5555 5577 5590 5615 5627 5637 5663 5669 5681 5688 5702 5709 5711 5705 5703 5704 5707 5711 5713 5714 5715
5510 5532 5544 5570 5599 5610 5629 5637 5648 5680 5684 5684 5690 5693 5706 5710 5710 5710 5708 5710 5714 5717
5496 5508 5523 5540 5576 5586 5602 5618 5629 5650 5660 5676 5672 5681 5684 5691 5708 5709 5709 5712 5713 5713
5473 5487 5505 5524 5548 5559 5574 5597 5608 5628 5635 5648 5669 5666 5669 5674 5688 5694 5701 5705 5710 5708
5458 5471 5486 5507 5529 5551 5563 5577 5592 5605 5614 5624 5640 5646 5656 5665 5674 5686 5692 5695 5701 5702
5443 5457 5472 5485 5500 5522 5536 5553 5559 5580 5591 5604 5617 5633 5632 5650 5649 5673 5680 5686 5694 5694
5432 5445 5457 5469 5483 5497 5510 5527 5541 5557 5568 5577 5595 5603 5605 5616 5651 5661 5662 5673 5678 5682